Weather History for Ft Lauderdale, FL

Change the Weather History Date:

Friday, September 27, 2013

  Actual Average Record
Temperature  
Mean Temperature 82 °F 83 °F  
Max Temperature 89 °F 88 °F 93 °F (1974)
Min Temperature 75 °F 77 °F 67 °F (1935)
Degree Days  
Heating Degree Days 0 0  
Month to date heating degree days 0 0  
Since 1 July heating degree days 0 0  
Cooling Degree Days 17 18  
Month to date cooling degree days 465 492  
Year to date cooling degree days 3512 3658  
Growing Degree Days 32 (Base 50)    
Moisture  
Dew Point 72 °F    
Average Humidity 77    
Maximum Humidity 100    
Minimum Humidity 53    
Precipitation  
Precipitation 0.00 in 0.26 in 4.61 in (1968)
Month to date precipitation 3.42 7.82  
Year to date precipitation 60.46 48.89  
Snow  
Snow 0.00 in - - ()
Month to date snowfall 0.0  
Since 1 July snowfall 0.0  
Since 1 September snowfall 0.0  
Snow Depth 0.00 in    
Sea Level Pressure  
Sea Level Pressure 29.87 in    
Wind  
Wind Speed 6 mph (NNW)    
Max Wind Speed 15 mph    
Max Gust Speed 17 mph    
Visibility 10 miles    
Events      
T = Trace of Precipitation, MM = Missing Value Source: NWS Daily Summary

Daily Weather History Graph

Daily Weather History Graph

Search for Another Location

Airport:

Trip Planner

Search our weather history database for the weather conditions in past years. The results will help you decide how hot, cold, wet, or windy it might be!

Date:

Astronomy

Sep. 27, 2013 Rise Set
Actual Time 7:11 AM EDT 7:11 PM EDT
Civil Twilight 6:48 AM EDT 7:34 PM EDT
Nautical Twilight 6:21 AM EDT 8:00 PM EDT
Astronomical Twilight 5:54 AM EDT 8:27 PM EDT
Moon 12:37 AM EDT (9/27) 2:18 PM EDT (9/27)
Length of Visible Light 12h 45m
Length of Day
11h 59m
Last Quarter, 45% of the Moon is Illuminated
Sep 27
Last Quarter
Oct 4
New
Oct 11
First Quarter
Oct 18
Full
Oct 26
Last Quarter

Hourly Weather History & Observations

Time (EDT) Temp. Heat Index Dew Point Humidity Pressure Visibility Wind Dir Wind Speed Gust Speed Precip Events Conditions
12:53 AM 79.0 °F - 77.0 °F 94% 29.86 in 10.0 mi West 5.8 mph - N/A   Partly Cloudy
1:53 AM 79.0 °F - 75.9 °F 90% 29.84 in 10.0 mi WNW 3.5 mph - N/A   Partly Cloudy
2:53 AM 78.1 °F - 75.9 °F 93% 29.83 in 10.0 mi WNW 3.5 mph - 0.01 in   Partly Cloudy
3:53 AM 78.1 °F - 75.9 °F 93% 29.83 in 10.0 mi WNW 3.5 mph - N/A   Partly Cloudy
4:53 AM 77.0 °F - 75.9 °F 96% 29.83 in 10.0 mi NW 3.5 mph - N/A   Partly Cloudy
5:53 AM 75.9 °F - 75.0 °F 97% 29.83 in 9.0 mi NW 4.6 mph - N/A   Partly Cloudy
6:53 AM 75.0 °F - 73.9 °F 96% 29.85 in 10.0 mi NW 5.8 mph - N/A   Partly Cloudy
7:53 AM 75.9 °F - 73.9 °F 94% 29.87 in 9.0 mi NW 4.6 mph - N/A   Mostly Cloudy
8:53 AM 78.1 °F - 73.9 °F 87% 29.88 in 10.0 mi NNW 8.1 mph - N/A   Mostly Cloudy
9:53 AM 81.0 °F 85.8 °F 73.0 °F 77% 29.89 in 10.0 mi NW 8.1 mph - N/A   Partly Cloudy
10:53 AM 84.0 °F 89.0 °F 71.1 °F 65% 29.90 in 10.0 mi NW 5.8 mph - N/A   Partly Cloudy
11:53 AM 87.1 °F 92.0 °F 70.0 °F 57% 29.89 in 10.0 mi NW 6.9 mph - N/A   Partly Cloudy
12:53 PM 88.0 °F 92.1 °F 69.1 °F 53% 29.87 in 10.0 mi NNW 10.4 mph 16.1 mph N/A   Scattered Clouds
1:53 PM 87.1 °F 91.3 °F 69.1 °F 55% 29.85 in 10.0 mi NW 10.4 mph 17.3 mph N/A   Mostly Cloudy
2:53 PM 87.1 °F 90.6 °F 68.0 °F 53% 29.84 in 10.0 mi NNW 9.2 mph - N/A   Scattered Clouds
3:53 PM 82.9 °F 87.5 °F 71.1 °F 67% 29.84 in 10.0 mi ENE 10.4 mph - N/A   Mostly Cloudy
4:53 PM 84.0 °F 88.4 °F 70.0 °F 63% 29.84 in 10.0 mi NE 10.4 mph - N/A   Mostly Cloudy
5:53 PM 84.0 °F 88.4 °F 70.0 °F 63% 29.85 in 10.0 mi Variable 6.9 mph - N/A   Partly Cloudy
6:53 PM 82.0 °F 85.9 °F 70.0 °F 67% 29.86 in 10.0 mi ENE 8.1 mph - N/A   Partly Cloudy
7:53 PM 81.0 °F 85.8 °F 73.0 °F 77% 29.88 in 10.0 mi NE 8.1 mph - N/A   Scattered Clouds
8:53 PM 81.0 °F 85.2 °F 72.0 °F 74% 29.89 in 10.0 mi ENE 6.9 mph - N/A   Scattered Clouds
9:53 PM 80.1 °F 83.8 °F 72.0 °F 76% 29.91 in 10.0 mi NNE 3.5 mph - N/A   Partly Cloudy
10:53 PM 80.1 °F 83.8 °F 72.0 °F 76% 29.92 in 10.0 mi Calm Calm - N/A   Scattered Clouds
11:53 PM 79.0 °F - 71.1 °F 77% 29.92 in 10.0 mi Calm Calm - N/A   Scattered Clouds